星链-34039 (STARLINK-34039)

导读

STARLINK-34039是美国太空探索技术公司星链星座的一员,于2025年5月13日在美国发射升空。星链项目旨在构建全球卫星互联网星座,为全球偏远地区、海上航运、航空飞行等场景提供高速低延迟的宽带网络服务,该卫星入轨后将参与星座组网,进一步拓展星链系统的全球覆盖能力。

Basic Information
目录编号:
63946
目录名称:
STARLINK-34039
国际标识:
2025-098W
轨道中心:
EARTH
卫星名称:
星链-34039
卫星全名:
星链-34039 (STARLINK-34039)
卫星状态:
在轨 (已飞行479 天)
发射日期:
2025-05-13 UTC
国别 :
美国 (US)
星等 :
--
Orbit Information
数据来源 国际轨道数据
星历时间: 2026-09-04T12:00:02+0800
6小时前
查看轨道信息
半长轴: 6855.259km
偏心率: 0.0002979
轨道倾角: 69.999°
近地点辐角 274.665°
升交点赤经 183.938°
平近点角 296.918°
近地点: 475.079km
远地点: 479.165km
周期: 94.145分钟
每日圈数: 15.295618
Detailed Information
固有亮度:
5
最大亮度:
2.5
卫星平台:
Starlink V1.0
覆盖范围:
全球
运营商:
太空探索技术公司
运营商所在国:
美国
制造商(研发单位):
太空探索技术公司
制造商所在国:
美国
使用方式:
暂无
Satellite Introduction
Starlink 计划是 SpaceX 推出的全球卫星互联网项目,通过发射低轨道卫星,为全球尤其是偏远地区提供高速、低延迟的互联网服务。自 2019 年起,Starlink 已部署数千颗卫星,旨在缩小全球数字鸿沟,推动互联网普及。该项目还为军事、航空等行业提供通信支持,带来广泛经济效益。
2D Orbit Map
3D Orbit Map
Orbit Altitude Analysis Chart
Orbit Inclination Analysis Chart
Orbit Comprehensive Analysis Chart
View Comprehensive Chart
Conjunction Data List
Event ID Objects TCA Miss Dist (km) Collision Risk Probability Collision Risk Index (CRI) Action
CDM_260905-110705-715306-394621
2026-09-05T
11:07:43+0000
1.655 km
极远距离
4.233804E-6 低风险 0.48
CDM_260901-053205-322006-394621
2026-09-01T
05:32:59+0000
2.159 km
极远距离
2.12705E-6 低风险 0.42
CDM_260905-160405-993906-394621
2026-09-05T
16:04:00+0000
2.171 km
极远距离
2.075246E-6 低风险 0.41
CDM_260902-074505-782506-394621
2026-09-02T
07:45:58+0000
2.151 km
极远距离
2.050875E-6 低风险 0.41
CDM_260906-021906-364506-394621
2026-09-06T
02:19:55+0000
2.317 km
极远距离
1.676965E-6 低风险 0.39
CDM_260903-065206-332706-394621
2026-09-03T
06:52:20+0000
2.409 km
极远距离
1.405087E-6 低风险 0.38
CDM_260905-062105-980306-394621
2026-09-05T
06:21:12+0000
2.572 km
极远距离
1.297354E-6 低风险 0.37
CDM_260905-011405-969706-394621
2026-09-05T
01:14:58+0000
2.390 km
极远距离
1.190495E-6 低风险 0.37
CDM_260905-152005-689906-394621
2026-09-05T
15:20:40+0000
2.919 km
极远距离
7.640539E-7 极低风险 0.33